Weather in Butyrskoye

Russia / Kurgan Oblast     55°22′26″N   63°33′12″E
temp.,
°C
wind,
m/s
gust,
m/s
humid.,
%
clouds,
%
prec.,
mm/h
press.,
hPa
HPBL,
m
23 april, fri
fri2323:00+9s3750100 0.0 1034116
02:00+8s4856100 0.0 1033138
05:00+7s4863100 0.0 1034169
08:00+9ssw4758100 0.0 1034387
11:00+13s61042100 0.0 10331444
14:00+14ssw7944100 0.0 10322022
17:00+14ssw5744100 0.0 10321882
20:00+11sse5947100 0.0 1031342
24 april, sat
sat2423:00+9sse51046100 0.0 1030375
02:00+8sse3645100 0.0 1029206
05:00+7sse4751100 0.0 1028246
08:00+7ese4555100 0.0 1026288
11:00+9se5848100 0.0 10251054
14:00+10se81043100 0.0 10231236
17:00+12sse7838100 0.0 10211883
20:00+9sse4636100 0.0 1020177
25 april, sun
sun2523:00+7sse5951100 0.0 1018486
02:00+5ese5107388 0.0 1017469
05:00+4e6127197 0.0 1015413
08:00+6ese5860100 0.1 1014542
11:00+7s3563100 0.1 1014610
14:00+7sw3467100 0.1 1014640
17:00+11sw585659 0.1 10141271
20:00+9sse377221 0.1 1012141
26 april, mon
mon2623:00+8wsw5127484 0.8 1013439
02:00+6wsw7137512 0.1 1014665
05:00+4wsw713710 0.1 1016573
08:00+6wsw812635 0.0 1017827
11:00+10w79465 0.0 10181522
14:00+11w7936100 0.0 10182333
17:00+12w7929100 0.0 10182583
20:00+10wsw4839100 0.0 1019189
27 april, tue
tue2723:00+8wsw3548100 0.0 101987
02:00+8ssw2250100 0.0 101831
05:00+6ssw3671100 0.2 1017197
08:00+5ese5990100 3.1 1015697
11:00+5e71292100 7.4 1011671
14:00+5e5894100 1.1 1007330
17:00+8e2397100 2.7 1006110
20:00+6n3597100 0.7 1005179